Theta_e
314 316 317 317 316 315 314 314 315 315 315 315 315 315 315 316 316 317 317 318 319 319 320 320 319 317 315 314 316 316 316 317 318 319 327 335 335 334 334 336 335 333 332 332 333 332 330 328 325 325 325 325 328 329 331 335 340 345 353 353 347 359 362 360 368 357 350 359 355 350 351 355 358 355 355 356 353 353 354 353 353 353 351 352 353 354 355 355
314 314 315 317 317 316 316 315 315 315 315 315 315 316 316 316 317 318 318 318 319 319 319 319 317 314 315 315 315 315 316 317 318 324 333 335 333 335 336 337 336 335 334 334 333 331 329 327 324 325 325 326 329 329 332 336 338 346 352 348 354 368 359 350 356 351 348 354 353 350 351 353 357 354 354 358 355 354 355 354 352 352 352 352 354 355 356 354
315 314 313 315 316 317 317 316 316 315 315 315 315 316 316 316 317 318 318 317 318 318 318 316 314 314 315 315 315 316 317 318 320 327 334 333 334 336 337 339 338 337 335 334 332 330 329 326 323 324 324 325 326 329 333 336 339 343 341 349 366 361 348 344 347 348 346 349 351 350 350 351 353 353 354 357 355 355 356 354 351 353 353 353 355 355 355 354
315 315 314 313 315 316 317 317 316 316 316 316 316 316 316 316 317 317 317 317 317 317 316 314 314 314 315 315 316 316 317 321 323 326 331 332 335 337 338 339 338 337 335 333 331 331 330 327 324 322 322 323 323 329 335 335 339 340 337 351 359 345 346 348 343 347 345 346 350 349 351 352 351 353 353 353 358 359 355 353 351 352 353 354 356 355 355 355
315 316 315 314 313 314 316 317 317 317 316 316 316 316 316 316 317 317 316 316 316 315 315 314 314 314 314 315 317 317 318 326 328 327 330 331 334 338 339 338 338 335 333 332 332 332 330 327 325 322 321 323 324 329 332 333 336 337 336 341 341 340 350 347 342 347 346 347 350 349 354 355 351 352 352 354 364 364 353 352 352 351 352 353 355 355 355 355
314 316 316 315 314 313 314 316 317 317 316 316 316 316 316 316 316 316 315 315 315 315 315 314 314 314 315 316 317 317 321 328 331 329 331 331 335 339 338 338 336 334 332 333 333 331 330 328 327 323 321 324 327 329 329 331 333 337 339 335 334 341 346 345 345 346 346 348 349 350 353 351 350 351 351 353 359 359 352 352 351 351 352 352 354 355 355 355
314 315 316 316 315 314 313 314 316 317 317 316 316 316 316 315 315 315 315 315 315 315 315 314 314 314 315 316 317 319 322 328 332 332 333 332 335 338 338 336 334 333 334 334 332 331 329 328 327 326 325 327 327 328 328 330 332 338 344 341 338 341 343 344 346 346 347 348 347 350 350 349 351 349 351 353 354 354 352 352 351 351 353 353 354 354 353 354
313 314 315 316 316 315 313 313 314 315 317 317 317 317 316 316 315 315 315 315 315 315 315 314 315 314 315 316 317 319 322 329 334 333 333 333 334 336 337 335 334 335 335 334 331 330 330 328 328 328 329 329 328 328 328 331 333 338 344 343 342 343 344 345 347 347 347 348 348 349 348 349 349 346 349 353 353 354 353 352 351 352 353 353 353 353 353 353
312 313 315 315 316 315 314 314 314 314 316 316 317 317 317 317 316 316 315 315 315 315 315 315 314 314 316 316 316 321 327 333 335 332 331 333 334 335 337 335 335 336 335 332 330 330 330 329 329 329 330 329 329 330 331 334 335 338 342 342 342 343 344 346 347 347 348 348 349 352 349 346 346 347 349 351 353 354 353 352 351 352 353 353 353 352 352 351
313 312 314 315 316 316 315 314 313 314 314 315 316 316 317 317 316 317 316 316 315 315 315 314 315 314 316 316 317 325 334 335 334 332 330 332 334 335 336 335 335 336 334 331 330 330 330 330 330 329 330 329 329 330 330 332 332 337 341 341 343 344 345 347 347 346 348 348 348 355 352 343 344 348 350 352 354 354 353 352 351 352 352 353 353 352 352 351
315 313 313 315 315 316 315 315 314 314 314 314 315 316 316 317 317 316 316 316 315 315 315 315 315 314 315 317 318 326 335 335 333 332 330 331 334 334 334 335 336 336 334 332 331 330 329 330 330 329 331 330 330 330 329 328 328 336 342 345 346 344 345 345 347 347 346 348 347 350 351 344 346 349 349 352 356 354 352 352 351 352 352 351 352 352 352 352
317 314 313 314 315 316 316 315 314 314 314 314 314 315 315 316 317 317 317 316 315 315 315 315 315 314 316 320 321 327 333 333 332 331 330 332 334 334 334 335 337 336 334 332 331 330 330 331 330 330 331 329 331 330 329 330 331 338 343 350 352 352 355 347 345 348 345 347 347 344 349 353 354 349 346 352 356 355 352 352 352 351 352 351 352 352 352 352
317 315 313 313 314 315 315 315 315 314 314 314 314 314 314 316 316 317 317 316 316 315 315 315 315 315 318 322 326 329 331 331 331 331 330 332 334 335 334 335 337 335 333 333 332 331 330 331 330 330 330 330 331 329 330 334 338 344 342 350 358 355 363 353 343 348 345 345 346 341 347 363 368 350 345 354 355 355 353 352 352 351 351 351 351 351 351 351
317 316 314 313 314 315 315 315 315 314 314 314 314 314 314 315 316 317 317 317 316 315 315 315 314 315 319 325 328 329 330 331 331 331 330 331 333 334 334 335 337 335 334 334 332 332 331 331 330 330 330 329 330 328 331 333 338 346 342 349 355 349 363 360 343 348 348 343 346 342 344 362 368 346 343 353 353 354 353 352 352 351 351 351 350 350 350 350
317 316 314 313 313 314 315 315 315 314 315 314 313 313 314 315 316 317 317 316 316 315 315 315 315 316 319 325 329 329 330 331 329 329 330 330 331 333 334 335 336 334 334 334 332 332 331 331 330 329 329 329 330 331 333 332 334 343 343 345 346 345 363 362 342 346 353 347 344 343 349 361 356 340 343 352 352 354 353 352 352 352 352 352 351 351 350 349
318 316 315 313 313 314 315 315 315 314 314 314 314 313 314 315 316 317 317 316 316 315 315 315 315 317 321 326 329 330 330 330 329 328 328 329 330 333 333 334 335 333 331 331 331 331 331 331 329 328 329 328 331 334 337 335 332 336 341 342 341 344 352 353 345 344 348 349 345 343 350 358 346 337 344 351 352 353 353 352 352 352 352 351 351 350 350 349
318 316 315 313 313 314 314 314 314 314 314 314 313 313 314 314 316 316 317 316 315 315 315 315 315 318 323 328 328 329 329 329 329 328 328 329 330 332 332 333 332 331 331 331 331 331 330 330 329 328 329 327 332 338 334 328 326 328 334 337 340 346 345 345 348 343 343 349 350 345 346 353 347 339 344 351 352 352 352 352 351 352 352 350 350 349 349 349
319 317 315 314 313 314 314 314 314 313 313 313 313 313 314 314 316 317 316 316 315 315 315 315 316 319 323 325 326 326 327 328 328 328 328 328 330 330 330 330 329 330 331 330 330 330 329 328 330 333 333 331 334 336 327 323 324 322 327 332 336 342 341 344 350 345 346 353 353 349 347 356 356 343 344 349 352 352 351 351 351 351 351 349 349 348 349 349
319 317 315 314 313 313 314 313 313 313 313 313 313 313 314 315 315 316 316 316 315 316 317 316 317 321 323 323 325 324 325 326 327 328 327 327 330 329 329 328 328 330 329 330 331 329 329 330 333 335 336 336 334 330 325 327 329 323 328 337 341 342 338 346 352 343 347 355 355 353 352 359 359 348 344 346 349 351 349 349 349 350 351 350 350 349 349 349
319 318 315 314 314 313 313 313 313 313 312 312 313 314 315 315 315 316 317 316 315 316 318 319 319 320 321 322 324 324 325 326 327 328 328 328 329 328 328 328 328 329 329 332 332 327 328 332 334 334 334 334 331 328 326 328 330 325 329 337 340 339 336 342 345 338 341 352 349 351 357 359 358 353 346 341 343 348 347 347 348 349 350 350 350 350 349 348
319 317 315 314 314 313 313 313 313 313 313 312 313 314 315 316 318 320 320 319 318 317 318 318 318 318 319 322 323 322 323 326 327 328 328 328 329 328 328 328 329 331 329 326 328 331 331 331 334 335 333 332 330 327 326 328 327 323 325 330 331 333 335 335 338 342 344 346 343 347 357 355 353 356 349 342 341 342 343 345 346 349 350 350 350 349 348 348
319 317 315 313 314 313 313 313 313 313 312 313 314 315 316 319 321 321 321 321 321 319 319 318 318 319 320 322 322 320 321 324 327 328 329 328 329 329 328 330 331 333 330 326 331 337 335 333 335 332 328 327 328 327 327 327 325 323 323 324 323 326 333 330 336 355 356 348 347 349 353 350 351 355 347 342 345 343 341 343 345 347 348 348 347 347 347 347
318 317 314 314 314 313 313 313 312 312 313 314 315 314 318 322 322 321 320 321 323 322 320 319 318 319 321 321 321 322 321 323 327 328 329 328 329 329 328 331 333 332 331 331 333 332 330 335 334 327 324 327 329 327 325 324 324 324 322 322 320 321 331 330 333 353 356 348 351 353 353 353 357 361 353 343 344 345 342 342 343 344 346 346 346 346 346 345
317 315 313 314 314 313 314 313 312 313 314 315 314 314 319 324 324 323 321 321 324 325 322 321 320 319 320 321 321 323 323 323 325 327 329 328 328 329 328 330 332 331 331 332 333 330 330 332 328 324 325 329 329 326 325 325 323 323 323 325 321 321 332 336 337 351 355 347 349 355 350 350 359 366 359 348 343 344 344 343 344 344 346 346 346 346 345 344
315 314 313 313 314 314 313 313 313 314 314 314 315 315 319 323 323 321 322 324 325 326 323 321 322 320 321 322 321 323 323 323 326 327 327 328 328 329 328 328 328 331 333 332 330 331 331 327 323 326 329 327 327 326 325 325 322 323 325 325 328 335 344 345 345 353 353 342 343 349 340 342 360 361 354 355 354 349 344 343 345 345 346 346 344 345 343 343
313 313 313 313 314 314 313 314 314 313 314 314 315 317 318 322 322 320 325 328 325 325 323 321 322 322 322 323 322 322 323 324 325 325 326 327 328 328 328 328 326 328 332 330 328 329 329 325 323 326 328 326 326 325 324 324 324 322 321 327 341 351 351 349 346 346 344 337 339 347 338 338 353 351 348 358 361 355 347 343 344 345 344 344 343 343 344 344
312 312 313 314 314 313 314 315 314 314 315 314 317 321 321 324 324 322 323 320 317 322 323 321 321 322 323 322 322 323 324 324 326 325 325 327 328 328 329 330 327 325 327 325 325 326 326 327 327 326 327 326 324 323 324 325 325 320 320 336 353 356 352 348 343 344 345 340 340 351 347 341 345 347 349 355 356 355 352 345 343 344 345 344 344 345 347 349
312 313 314 314 313 314 315 315 314 315 317 320 324 325 326 327 324 324 322 313 313 321 322 320 322 322 322 322 322 324 324 325 325 324 325 326 328 328 328 330 329 328 325 322 325 325 324 326 327 326 325 324 324 326 326 323 323 322 323 336 348 348 346 342 340 344 344 339 338 345 346 340 344 356 357 354 352 350 351 349 344 343 346 345 345 348 350 350
313 314 313 313 313 314 315 315 315 317 323 328 328 327 328 324 322 326 324 318 318 321 320 320 322 321 322 323 322 323 324 324 325 325 325 325 328 327 328 327 327 328 323 322 327 327 324 324 323 323 323 325 328 328 326 324 324 321 319 327 331 332 336 337 340 343 340 338 337 337 342 340 341 354 354 349 350 353 355 353 344 342 347 346 346 349 350 350
314 314 313 313 314 314 315 316 315 321 329 329 326 329 326 323 330 328 320 320 323 319 319 320 320 321 322 323 323 322 322 323 324 326 325 326 327 326 326 325 324 328 328 324 327 326 322 321 322 324 324 325 326 324 321 321 321 318 320 325 325 329 336 339 347 347 336 335 337 334 342 342 338 347 353 348 350 357 359 353 344 345 349 348 347 349 349 349
314 314 314 315 315 315 316 315 318 326 329 327 327 329 323 325 337 329 318 321 321 318 320 320 320 323 324 325 325 322 322 323 324 326 326 326 327 325 325 326 324 330 336 332 326 326 324 322 324 325 322 322 323 322 320 319 318 321 329 328 321 327 332 333 344 346 332 331 336 335 338 339 335 340 348 349 349 350 352 352 350 349 349 349 348 349 349 348
314 314 315 316 315 317 318 320 326 328 326 327 328 327 326 325 326 326 325 324 319 319 322 320 320 324 324 325 325 324 323 323 322 325 327 326 328 327 327 331 330 326 329 328 323 324 326 325 324 322 322 323 322 323 325 326 326 328 337 333 326 328 328 325 330 333 330 331 334 335 336 336 337 339 342 347 347 342 341 344 348 348 348 348 347 347 348 346
315 316 316 317 318 322 324 326 329 326 325 328 325 327 333 326 320 325 329 323 318 320 323 321 322 324 324 324 324 324 324 324 323 324 323 324 327 326 323 328 330 324 324 322 319 321 324 327 327 323 323 323 322 324 325 327 330 328 331 330 327 327 324 320 322 326 333 335 334 335 334 332 336 340 342 346 345 339 338 342 347 349 347 346 345 346 346 344
316 316 317 320 324 327 328 327 326 325 326 328 328 329 328 323 327 334 334 328 324 323 322 323 324 323 323 325 325 324 323 323 324 324 322 324 325 325 324 323 323 324 326 321 319 319 319 322 326 324 322 322 326 327 325 329 329 324 328 327 323 326 322 317 324 333 336 336 338 337 332 332 337 339 341 344 342 341 343 345 347 347 346 346 345 345 345 343
316 317 320 324 327 327 328 325 325 326 324 326 334 334 327 327 334 337 338 337 330 324 323 323 325 323 322 325 324 323 323 323 324 324 323 324 324 326 328 325 322 325 325 321 322 322 318 321 327 326 322 323 326 324 325 331 327 321 326 327 322 325 328 323 327 336 337 336 338 336 334 337 343 343 342 345 345 344 345 344 345 345 345 347 346 345 346 345
317 319 323 327 327 326 326 325 326 326 325 330 335 331 331 335 335 334 337 335 327 324 323 323 325 323 320 323 325 322 321 323 325 324 323 324 324 324 326 326 324 323 323 325 326 322 318 323 330 329 326 326 326 325 326 325 327 328 327 325 323 326 335 333 328 334 337 334 332 333 340 347 348 345 345 349 350 349 347 345 345 346 346 347 348 348 348 348
318 321 325 327 326 325 325 325 325 324 325 332 336 336 339 336 332 336 340 334 326 325 324 321 323 323 320 320 323 324 322 323 323 323 322 322 322 322 323 324 322 321 325 326 324 321 319 323 330 333 331 329 325 327 329 324 326 334 328 324 325 326 335 339 333 335 336 333 333 336 343 349 348 344 347 352 354 353 352 349 346 346 347 348 350 351 350 350
320 323 325 326 325 323 324 325 324 326 326 330 338 344 343 334 329 332 334 332 328 325 324 323 321 323 323 321 322 324 322 321 322 324 323 320 322 323 323 324 322 321 323 321 322 324 322 321 328 333 331 331 333 332 332 329 327 329 326 324 327 325 327 329 329 332 332 332 338 340 340 346 347 347 349 352 354 356 355 352 348 347 347 348 350 351 350 351
322 324 324 325 323 322 324 324 324 327 326 329 338 341 336 334 331 329 330 332 330 325 323 325 322 321 323 323 323 322 321 322 322 324 322 320 321 322 322 324 322 319 320 320 324 328 325 321 324 333 331 329 338 339 332 334 331 329 329 329 331 333 329 325 326 332 338 339 340 337 335 343 350 350 351 350 352 355 355 354 352 347 347 348 350 350 350 350
321 323 323 323 323 322 322 322 325 328 328 331 339 338 330 330 329 327 328 329 329 328 325 325 324 322 323 323 323 323 322 324 324 323 321 320 321 323 324 326 326 324 319 318 326 330 330 324 323 336 339 329 335 339 333 334 331 330 333 330 330 331 326 325 326 329 342 349 344 337 336 345 351 347 347 349 351 352 352 354 351 346 347 349 348 349 349 349
320 323 325 325 325 322 320 323 327 329 331 332 335 335 330 328 328 327 327 326 329 330 325 324 324 323 323 322 322 323 324 324 324 323 323 320 322 324 326 325 326 327 321 321 332 331 327 330 329 333 335 330 335 339 333 332 330 333 336 330 329 330 327 328 326 324 337 346 344 342 340 346 351 346 346 348 349 350 350 349 349 347 348 348 347 348 348 347
322 326 328 328 327 322 321 328 329 327 333 334 330 329 328 328 330 329 326 326 328 328 324 324 325 326 325 323 323 325 329 329 324 324 324 322 325 326 326 326 324 325 326 327 332 331 332 343 340 332 334 334 334 332 327 326 329 333 334 331 331 333 333 333 329 326 331 334 337 338 337 342 347 345 348 348 347 350 349 347 348 348 347 347 347 347 345 345
323 327 328 327 326 321 321 329 328 327 334 333 327 326 326 326 330 330 327 326 327 326 326 326 327 327 326 325 325 328 333 331 325 326 327 327 329 327 327 329 325 326 331 331 332 333 336 344 339 337 353 356 342 337 333 329 331 333 333 333 331 329 333 336 336 337 333 331 334 330 330 342 347 343 347 348 349 351 349 348 348 347 348 347 346 345 344 343
325 328 327 324 322 322 324 327 327 334 342 336 327 328 327 326 328 329 328 327 325 327 330 329 328 328 328 329 331 330 330 329 326 326 329 330 329 328 329 332 329 329 331 331 332 331 331 339 338 334 341 343 337 341 339 334 336 335 332 334 332 331 335 334 334 335 331 331 335 329 332 346 347 343 349 350 349 350 347 348 349 347 347 346 344 344 343 341
330 330 325 322 323 324 327 327 326 334 341 335 329 330 329 327 328 327 327 326 324 326 329 328 327 327 329 330 332 330 328 329 329 329 332 333 330 327 328 330 333 336 337 333 331 332 337 344 345 338 332 329 332 337 333 329 334 334 334 337 337 334 332 331 332 332 328 330 332 331 339 349 347 347 353 351 350 350 347 347 348 347 346 345 344 343 342 342
330 333 329 324 325 325 326 327 326 329 333 332 332 333 330 330 328 325 326 327 326 326 326 327 329 329 330 330 331 331 329 329 331 332 333 334 332 327 325 327 331 336 341 334 326 339 349 343 350 360 348 338 344 345 336 332 334 335 337 341 342 341 335 332 331 329 333 336 336 338 346 351 350 351 354 352 352 351 348 346 346 346 345 344 344 343 342 342
328 334 333 328 329 329 328 327 326 327 329 329 332 333 331 331 330 327 328 328 327 328 326 325 328 331 332 332 332 332 332 332 332 332 332 331 333 329 323 325 327 327 334 329 324 344 353 335 338 354 339 331 342 341 335 337 335 336 341 342 342 345 347 343 334 329 332 332 332 340 348 351 351 350 352 353 351 349 347 345 345 345 344 344 343 342 341 339
328 331 331 330 334 336 334 331 327 326 327 327 331 334 331 330 332 329 329 329 326 328 329 327 326 327 330 334 335 334 336 337 332 330 332 331 332 333 328 327 326 324 328 328 326 343 352 333 328 333 327 329 338 335 335 341 338 338 343 344 344 345 349 352 345 340 337 329 330 342 348 351 350 348 349 349 348 348 346 344 343 343 344 344 342 339 338 336
331 333 331 331 334 334 333 333 329 327 329 329 334 339 332 328 330 327 327 331 329 326 328 327 325 325 327 333 338 336 335 334 329 328 331 330 330 333 334 331 326 323 327 332 329 332 339 336 332 333 330 331 335 336 338 341 341 341 343 343 345 345 345 346 346 346 345 340 340 346 348 347 344 343 343 342 343 346 344 341 341 340 342 342 341 339 337 335
332 335 334 334 336 334 333 334 332 332 334 331 332 335 330 327 329 326 325 330 331 328 327 326 325 324 325 330 334 332 331 333 332 330 331 332 331 331 332 330 327 325 328 334 331 327 329 334 339 344 335 326 330 337 340 342 343 345 343 342 344 346 346 347 346 348 350 345 342 345 347 344 339 336 336 338 340 342 339 339 340 339 339 339 338 338 337 335
333 333 332 336 343 342 336 332 331 336 339 333 331 333 332 327 326 327 325 325 328 328 326 325 325 325 326 328 329 327 326 330 331 328 328 329 329 328 328 326 324 326 330 330 328 331 334 332 335 342 334 324 327 332 337 344 348 348 346 343 344 346 347 345 343 344 346 344 344 347 346 342 338 335 335 335 335 335 334 334 336 335 335 334 333 334 336 335
335 333 330 337 345 340 331 328 330 333 335 332 332 333 332 327 324 326 327 325 324 325 324 323 323 326 329 328 326 325 323 324 325 324 324 325 324 324 325 324 323 325 331 333 330 335 343 335 329 334 329 322 324 330 336 346 350 349 346 340 341 345 344 343 342 340 341 343 347 348 344 339 337 335 335 335 332 330 329 329 329 329 329 330 331 332 333 333
Wind_Speed
8 8 8 8 8 8 8 8 8 8 8 8 8 7 7 6 6 6 6 7 7 8 9 10 12 13 13 14 13 13 14 12 11 13 16 14 9 9 8 6 9 9 6 6 8 10 11 10 9 7 7 7 5 6 5 8 7 4 2 2 1 2 3 5 6 5 3 2 4 6 7 4 1 5 4 2 5 9 9 2 4 7 3 6 9 14 18 15
8 9 9 9 9 9 9 9 9 9 9 8 8 7 6 6 5 5 6 7 7 8 9 10 11 11 12 12 12 13 13 11 12 15 16 9 5 9 12 10 9 8 6 7 9 11 11 10 8 7 7 6 4 3 3 6 8 4 2 2 3 4 4 6 8 8 4 4 7 7 7 5 1 5 6 3 3 5 5 2 5 6 6 10 13 17 17 15
8 9 9 10 10 10 10 10 10 10 10 9 8 7 6 6 5 5 6 7 8 8 9 9 9 10 11 11 12 13 12 10 12 14 13 9 7 8 11 12 9 7 6 8 9 11 11 10 9 8 7 5 3 4 3 5 8 4 2 1 5 5 3 5 10 10 6 6 10 7 6 5 2 5 7 4 3 2 3 5 8 11 13 14 17 19 17 17
8 9 9 10 11 11 11 11 11 11 10 10 9 8 7 6 5 6 6 8 8 8 8 8 8 8 9 11 11 11 10 9 8 10 9 9 9 8 9 9 6 5 7 8 9 10 11 11 10 8 6 4 3 7 5 7 8 3 4 3 5 3 1 6 10 10 7 7 11 9 6 3 2 5 6 6 5 2 5 10 11 14 18 19 21 21 18 18
8 9 9 10 11 11 12 12 12 12 11 11 10 9 8 7 6 6 7 8 8 8 7 7 7 8 9 10 10 9 7 4 2 6 6 7 7 8 9 7 6 5 7 8 8 9 10 10 7 5 6 2 5 6 6 13 11 2 5 8 6 2 1 5 9 9 9 9 10 9 6 2 3 5 5 8 6 3 7 13 12 15 18 19 22 21 19 19
8 9 9 10 10 11 12 13 12 12 12 11 10 10 9 8 7 7 7 8 8 6 6 6 7 7 8 9 9 8 3 2 3 4 4 6 7 8 8 6 6 5 6 7 6 8 10 8 5 5 5 2 7 6 6 17 14 1 5 9 8 6 3 3 9 10 11 12 11 9 6 4 5 2 4 11 6 6 3 11 12 15 17 18 20 20 19 19
8 8 9 9 10 11 12 13 13 13 13 12 11 10 9 8 7 6 7 7 6 6 5 6 7 6 7 8 8 7 6 3 4 6 5 6 8 8 8 6 6 6 6 5 5 7 9 5 4 5 4 2 6 5 5 17 15 3 3 6 6 7 4 3 9 10 11 13 11 10 6 5 6 1 3 11 8 6 2 10 12 16 18 19 19 18 17 16
7 8 8 9 10 11 12 13 13 14 13 13 11 10 9 8 7 7 7 6 6 5 5 6 7 6 6 7 8 8 8 4 5 6 4 5 8 8 8 7 6 6 5 5 5 7 7 3 5 4 1 2 1 1 9 13 9 6 3 4 3 3 1 2 8 9 10 9 10 9 5 4 5 1 2 6 6 2 6 9 13 19 19 19 19 17 16 14
6 7 8 9 10 11 11 12 13 14 14 13 12 11 10 8 7 7 7 6 6 5 5 6 7 7 6 7 8 8 5 4 5 3 4 5 7 8 9 7 6 5 4 5 7 8 8 7 11 13 4 2 6 3 11 10 4 11 8 5 4 1 1 4 6 8 7 6 9 7 5 4 4 1 1 0 2 6 7 11 16 19 19 20 18 16 15 14
6 7 7 8 9 10 11 12 13 13 14 14 13 12 11 9 8 8 8 7 6 6 5 6 7 7 6 6 6 3 5 6 3 2 4 6 7 8 9 7 6 5 4 5 7 8 10 10 14 15 5 3 8 5 7 3 3 10 11 8 3 2 2 4 4 5 5 3 7 5 4 3 3 1 0 2 7 10 10 14 19 19 19 19 17 16 15 14
7 7 7 8 9 10 11 11 12 12 13 13 13 12 11 10 9 9 8 7 7 6 5 6 7 7 7 8 7 3 6 5 4 3 5 6 8 9 9 8 6 5 5 6 7 8 11 11 14 12 4 5 9 5 4 6 5 10 16 8 4 5 3 2 2 3 4 2 5 5 4 3 3 2 1 5 11 11 12 17 19 18 18 18 17 16 15 15
7 7 7 8 9 10 10 11 12 12 12 13 13 12 11 11 10 10 9 8 7 6 6 6 7 7 7 10 10 6 5 4 5 5 5 7 8 10 9 8 7 6 6 7 8 9 11 12 14 13 6 5 6 2 4 8 1 12 15 6 5 7 4 1 2 3 3 2 5 6 4 4 2 1 1 8 14 12 14 17 18 17 17 17 17 17 16 15
8 7 8 8 9 9 10 11 11 11 11 11 11 11 12 12 10 10 9 8 7 6 6 6 8 7 7 9 8 6 4 5 5 5 5 7 8 9 8 7 7 6 6 8 10 10 12 13 16 16 9 2 2 1 3 6 7 9 6 4 3 7 5 3 3 5 3 2 5 6 2 5 5 3 4 9 14 15 15 16 17 16 15 15 16 16 17 16
8 8 8 8 9 9 10 10 10 10 10 10 10 11 12 11 10 9 9 8 7 7 6 6 8 7 7 7 6 6 7 5 4 4 3 6 9 9 8 7 7 7 7 8 11 11 12 15 16 13 6 0 2 2 2 7 6 4 4 3 3 2 4 6 2 7 4 1 4 4 2 4 7 6 6 11 13 15 16 16 16 15 14 14 14 15 16 16
8 8 7 8 8 9 9 10 10 9 9 9 10 11 11 11 10 9 8 8 7 7 6 6 7 6 8 7 6 7 8 6 3 2 2 5 10 10 9 8 8 7 8 10 11 11 13 14 11 6 3 1 2 3 3 5 4 3 3 1 2 2 5 7 1 9 6 2 2 4 1 5 6 4 8 14 13 14 15 15 16 15 14 15 14 15 16 16
8 7 6 7 7 8 9 9 9 8 8 9 10 11 11 10 10 8 9 8 7 7 6 6 6 5 6 5 7 7 8 7 5 4 5 6 10 11 9 8 7 6 7 8 10 11 11 11 6 4 4 3 4 4 4 4 4 4 2 1 1 2 4 5 1 5 7 4 1 3 2 3 4 4 7 15 14 14 13 13 14 14 14 14 15 15 16 16
8 7 6 6 7 7 8 8 8 8 8 10 10 10 10 10 9 8 8 8 7 7 6 6 6 5 5 4 6 7 7 7 7 7 7 8 10 10 8 6 5 5 5 5 8 8 8 8 5 2 3 4 3 4 6 4 4 4 2 1 3 4 2 2 4 2 6 4 1 2 1 4 4 4 6 14 14 13 12 12 13 13 13 13 14 14 15 16
7 6 6 6 7 7 7 7 7 7 9 9 9 9 9 9 8 8 9 8 7 6 6 7 3 2 5 7 4 4 5 6 6 7 9 11 11 9 6 4 3 5 5 4 5 7 9 8 3 2 3 5 4 6 5 1 3 4 3 2 3 3 4 3 4 4 6 5 3 3 1 7 5 6 3 10 13 13 11 10 11 11 12 13 13 14 14 14
8 7 6 7 7 7 6 6 6 7 8 9 9 8 8 7 7 8 9 9 8 5 2 6 8 4 2 4 2 2 4 6 6 8 9 11 12 9 6 4 4 4 5 4 4 7 8 7 4 3 3 4 2 3 3 6 7 6 5 5 4 4 4 5 5 4 7 6 3 5 3 5 5 5 2 5 9 10 9 8 8 9 10 12 13 13 13 13
8 7 7 7 7 7 6 6 7 7 8 9 9 8 6 5 4 5 8 10 12 10 4 4 10 10 5 1 1 4 3 4 5 7 7 9 11 9 5 4 3 4 3 1 3 5 6 6 3 3 5 7 6 3 6 7 7 5 3 4 4 3 2 4 4 2 5 6 1 3 3 4 4 5 5 1 6 7 8 7 7 8 9 11 12 12 12 13
8 7 7 7 8 7 7 7 6 7 9 9 9 7 4 4 2 2 5 8 11 13 13 10 10 15 12 6 4 6 5 3 4 5 7 9 10 7 4 2 2 2 2 1 2 4 4 3 5 7 8 8 5 1 5 5 4 3 2 4 1 3 2 4 2 3 1 4 2 2 4 4 5 5 5 2 4 4 6 8 7 8 8 9 11 11 12 12
9 8 7 7 8 8 7 6 6 8 9 9 9 7 2 4 5 5 6 6 7 10 13 14 15 16 13 9 8 7 6 2 3 6 7 9 10 6 3 2 4 2 3 2 1 5 4 3 9 7 5 3 3 2 3 4 4 2 1 4 1 3 2 3 3 5 4 4 1 2 4 3 6 5 5 8 4 0 3 6 5 6 7 8 8 8 9 9
9 8 7 8 8 8 7 6 7 9 9 10 10 6 3 5 4 6 7 4 6 7 9 12 15 16 12 9 7 5 4 2 1 5 8 8 9 6 4 4 4 2 2 3 2 1 2 5 8 3 2 3 5 4 3 3 3 2 2 4 2 3 3 0 2 4 4 3 4 5 4 2 5 4 4 10 7 4 1 3 2 3 5 3 3 3 4 5
9 8 8 8 8 8 7 7 8 10 11 10 8 6 4 6 5 5 5 3 4 4 6 8 11 13 12 7 4 2 2 2 3 6 8 9 8 4 4 4 5 2 2 2 6 4 5 8 7 3 4 0 2 4 3 4 1 3 4 5 3 3 3 3 2 2 4 5 3 6 5 4 5 4 5 7 8 8 5 4 4 2 2 3 3 2 4 6
8 8 8 8 8 8 8 8 10 11 11 8 7 8 6 7 7 6 4 1 3 3 2 5 7 9 9 5 4 4 1 3 7 7 7 10 9 4 2 3 3 2 5 4 5 3 7 7 5 3 5 4 1 3 2 5 1 3 3 6 8 8 6 7 6 4 5 3 1 4 5 4 5 4 3 5 6 6 6 7 8 6 6 7 6 6 6 7
7 8 8 8 9 8 8 9 10 10 9 8 8 8 7 7 7 6 0 4 2 3 2 4 4 5 7 6 6 5 1 3 9 10 9 10 10 5 2 2 1 2 4 4 2 2 5 3 3 3 5 7 4 3 3 6 4 2 3 6 9 11 10 10 8 4 3 2 2 3 5 2 5 4 3 5 5 5 5 8 10 9 10 10 9 9 9 9
7 8 9 9 10 9 9 9 10 9 8 8 7 6 6 6 4 4 2 5 2 3 4 5 4 5 7 5 7 8 1 2 7 10 12 11 9 7 4 2 0 2 3 3 1 2 2 5 7 6 5 6 4 4 4 6 5 1 3 7 10 11 11 10 8 5 3 4 2 4 4 3 2 3 4 3 4 5 5 6 9 10 12 11 11 11 10 9
7 8 9 10 10 11 8 8 10 9 8 7 6 5 5 4 4 4 4 4 2 2 3 5 5 7 6 4 10 9 1 3 5 7 12 12 10 7 3 5 5 4 1 3 2 5 1 2 4 4 5 4 3 6 6 7 2 4 5 7 7 7 8 6 5 4 2 4 1 5 3 4 3 5 4 3 3 2 3 2 6 9 11 11 11 11 10 9
8 9 10 11 12 11 8 8 11 10 7 4 3 4 3 5 4 2 4 2 2 1 2 6 6 6 6 5 9 9 2 1 2 6 11 11 12 6 1 6 6 3 1 3 3 6 3 4 2 2 1 4 7 6 7 7 1 3 7 7 7 6 6 5 5 4 4 4 3 5 2 4 3 5 3 3 3 3 4 3 2 6 8 9 9 9 10 11
9 10 11 12 12 11 8 11 13 9 4 1 2 4 6 6 3 4 2 2 1 0 1 5 5 5 6 5 2 5 3 1 1 7 8 8 11 6 1 3 3 3 2 4 1 6 6 5 3 3 5 6 5 4 5 6 2 5 8 8 8 7 6 5 4 4 5 2 4 5 1 4 1 5 2 1 2 4 4 1 1 7 9 8 8 9 11 12
10 11 12 11 11 10 10 13 12 6 3 1 2 7 7 3 3 5 3 2 0 0 1 2 2 2 6 5 1 1 1 1 1 7 5 4 5 3 3 2 1 3 4 5 3 6 8 4 2 4 7 4 1 1 1 1 3 6 5 5 6 4 5 5 5 4 5 2 5 5 2 5 2 4 3 3 5 4 5 5 5 8 11 10 9 10 11 10
11 11 10 10 10 10 11 12 9 5 4 2 5 9 6 2 1 2 2 2 1 2 2 3 2 2 5 4 2 2 1 1 1 4 3 3 4 2 1 3 2 2 3 3 2 6 7 4 4 5 4 4 3 1 3 5 6 5 4 5 5 3 4 3 3 2 1 4 3 3 2 2 1 5 4 6 7 5 4 6 9 12 13 11 10 10 10 9
10 10 10 11 11 11 11 9 6 5 5 4 7 6 4 4 2 4 2 2 1 3 2 3 1 3 6 4 2 3 2 1 2 2 2 2 3 1 1 2 5 3 0 2 1 4 4 5 7 6 2 2 4 3 1 3 3 4 3 3 3 3 2 1 2 0 1 3 3 4 2 1 3 3 3 6 6 3 3 9 14 16 15 12 10 9 8 7
10 11 12 13 12 11 9 6 5 6 5 6 7 4 4 2 4 3 2 2 2 1 1 2 3 3 5 3 3 2 2 1 2 3 3 3 3 1 1 1 1 4 4 2 1 1 1 4 5 2 2 2 1 4 5 4 3 1 3 4 3 3 3 2 3 3 2 2 3 4 1 2 2 3 3 3 4 6 11 15 17 16 14 12 10 9 7 7
11 13 13 12 11 10 8 5 4 5 4 6 6 4 2 3 3 1 3 3 2 1 1 2 4 4 1 2 3 1 3 1 1 4 3 2 3 3 3 3 3 3 5 2 2 1 2 4 6 5 4 2 2 2 4 5 3 1 2 4 1 2 4 3 3 4 4 1 2 2 1 2 3 3 3 5 6 8 13 17 18 17 14 12 10 9 7 6
12 13 12 11 10 9 7 5 4 3 3 5 4 1 4 4 2 2 3 2 1 1 2 3 4 4 0 2 2 1 2 1 2 3 1 0 3 4 2 4 5 5 5 4 2 1 2 3 7 6 4 2 3 1 2 3 1 1 3 2 3 3 7 5 2 1 3 3 1 1 2 3 3 3 2 5 5 4 8 13 16 15 13 12 11 9 8 7
12 11 10 10 10 8 7 5 4 4 3 5 4 3 4 3 4 4 2 1 1 1 5 2 1 3 2 1 1 2 2 1 1 2 1 1 2 4 3 4 6 8 9 6 2 2 2 2 6 4 3 4 5 3 4 4 3 3 2 3 3 3 5 5 3 3 4 2 1 2 2 3 2 1 1 2 2 2 3 7 12 13 12 12 10 9 7 6
11 11 9 10 8 7 7 5 5 5 2 4 1 4 3 3 4 4 2 1 1 2 4 3 2 2 3 3 3 2 3 2 2 1 3 1 2 4 4 3 7 11 13 10 3 1 3 1 7 3 1 6 8 6 4 6 5 5 4 5 3 3 1 2 2 1 1 1 2 3 2 3 3 3 4 6 7 6 4 4 8 9 11 11 9 8 7 6
10 9 6 7 7 5 5 3 3 3 2 2 3 3 2 3 6 7 7 4 1 2 2 4 2 2 3 4 3 2 2 3 3 1 2 1 2 4 5 3 5 8 12 12 5 1 3 2 5 5 3 4 6 5 1 4 5 5 4 2 2 3 4 2 2 3 3 2 2 2 2 3 5 5 8 10 9 8 6 4 5 9 11 11 9 8 6 5
8 6 2 5 8 7 5 3 2 3 2 3 4 3 2 3 7 11 12 8 4 4 3 4 3 3 3 4 3 2 2 3 4 2 1 2 2 4 4 4 2 2 6 8 4 1 2 3 2 5 4 2 2 0 4 2 2 3 3 2 2 2 1 2 2 1 4 4 2 1 1 5 6 4 8 11 8 7 7 6 7 10 11 10 8 7 6 5
6 3 0 4 9 10 8 4 2 2 1 2 3 2 3 4 6 10 11 11 11 7 4 4 4 4 4 3 3 3 2 3 3 2 2 2 2 1 2 2 4 5 6 5 1 1 2 2 2 2 4 2 3 5 4 4 3 2 2 2 2 3 2 3 1 2 2 4 4 4 2 6 5 2 5 9 8 7 9 10 10 10 10 9 8 7 7 6
5 2 2 3 10 14 10 4 0 1 2 3 3 5 6 6 6 7 7 7 10 8 4 3 3 3 3 3 3 3 3 2 0 2 3 2 3 3 6 7 4 9 7 4 2 3 3 4 3 0 1 3 7 6 1 3 4 3 2 2 3 2 3 5 2 3 1 2 2 4 1 6 5 2 1 7 10 11 11 12 11 10 9 9 8 8 8 8
3 1 2 5 13 14 8 1 3 1 2 5 5 8 9 7 4 5 5 3 6 5 2 1 2 3 3 2 3 4 4 3 0 2 2 1 2 3 8 7 4 5 4 2 2 1 2 4 4 1 4 4 6 6 3 2 3 3 3 2 1 1 2 5 4 3 3 2 3 3 1 5 5 4 7 11 13 12 10 10 12 11 10 9 9 9 9 9
3 4 4 11 15 10 5 2 2 2 4 4 4 8 10 8 6 5 4 3 2 3 3 0 2 2 2 3 5 4 4 3 1 1 2 3 0 7 10 7 4 2 3 3 4 3 1 1 4 3 4 5 6 7 6 5 3 2 2 4 4 3 3 3 2 3 1 3 4 4 3 5 4 4 8 12 11 11 9 8 11 12 11 10 10 10 9 9
4 5 6 12 13 7 4 4 3 2 3 4 4 7 8 6 6 7 6 3 4 4 4 1 1 3 4 4 5 4 3 4 2 1 3 1 1 8 13 11 8 5 4 4 7 7 3 1 4 5 3 2 2 2 3 3 3 2 3 6 6 4 2 1 1 3 0 3 3 4 4 4 3 3 6 7 7 8 7 8 10 11 12 11 10 10 9 8
3 2 3 7 10 8 9 8 3 1 2 2 3 5 4 3 3 2 4 1 7 9 7 5 3 4 6 6 6 6 6 5 4 3 3 2 1 4 9 13 14 10 6 6 7 6 4 3 3 5 6 6 6 5 5 1 2 3 5 7 7 5 2 2 3 2 3 2 1 4 4 3 1 2 5 5 5 5 6 8 10 10 11 11 10 10 9 7
1 2 2 3 6 8 11 12 7 3 2 1 1 3 4 4 3 5 4 3 7 9 7 8 7 4 4 5 7 4 6 6 7 4 2 2 1 3 7 12 15 13 8 7 6 4 5 3 1 5 4 3 5 2 2 5 5 2 4 7 8 8 6 6 3 2 2 2 3 6 2 6 4 4 5 5 4 5 7 10 12 13 13 12 10 9 8 7
1 1 2 4 3 4 5 8 9 8 5 2 1 3 4 4 3 4 5 5 7 9 6 6 10 7 3 3 6 3 4 5 6 4 1 2 2 3 6 8 10 12 9 7 7 5 6 2 0 4 5 3 2 4 5 6 5 4 6 7 8 9 10 7 3 4 1 2 3 2 4 5 2 2 4 4 5 7 9 8 7 6 7 8 8 9 8 6
2 2 3 5 5 5 5 5 5 7 7 5 2 3 2 2 4 3 3 4 6 9 7 5 7 8 7 6 6 4 2 3 3 3 1 2 3 2 3 3 5 10 9 6 5 4 4 1 0 4 5 6 6 5 3 6 6 6 8 8 6 7 8 7 4 4 4 4 2 5 10 8 4 2 3 3 5 6 7 7 3 1 3 7 9 9 9 7
2 3 3 4 6 8 9 5 3 5 3 4 3 2 1 2 5 3 5 5 3 4 6 7 4 5 8 9 8 5 3 6 6 2 3 2 2 1 1 1 1 6 8 3 2 3 3 2 0 4 5 5 5 4 4 6 8 8 9 10 8 6 7 7 5 5 5 5 5 8 11 8 5 5 11 12 12 12 12 8 5 4 5 6 9 12 12 10
3 4 3 3 3 5 5 3 3 5 2 2 3 0 2 4 5 6 6 9 6 4 3 8 7 4 6 9 8 3 4 7 6 4 6 4 1 2 1 1 3 1 5 2 1 3 3 3 1 4 5 1 2 2 3 4 8 10 10 12 10 7 5 4 4 5 3 1 3 7 7 2 1 6 13 16 18 19 16 10 4 2 3 6 12 15 15 15
3 3 4 3 2 4 4 2 1 4 2 2 4 1 2 3 1 5 7 9 9 8 7 9 8 5 6 7 5 0 4 4 4 6 6 5 6 5 3 2 4 3 1 2 2 3 3 5 3 3 4 3 4 1 3 4 6 5 6 7 6 2 3 4 5 7 5 1 1 3 3 2 1 5 9 12 16 19 18 15 12 10 7 6 8 9 8 7
Wind_Direction
261 257 256 257 255 251 248 247 249 252 253 254 254 255 258 262 266 269 273 277 279 283 288 291 296 300 302 305 308 304 295 279 266 257 243 233 225 218 216 205 209 233 267 290 300 302 302 308 310 286 265 268 269 269 250 223 203 173 125 94 240 200 191 189 189 199 155 150 173 173 182 168 162 194 186 149 147 150 165 172 166 192 241 186 168 159 163 163
265 257 253 255 255 253 251 248 249 251 253 254 254 254 255 259 264 267 271 274 279 285 289 293 298 302 302 306 310 306 302 288 268 241 226 221 208 207 215 221 224 237 267 289 300 299 302 315 310 283 264 265 273 258 233 203 190 172 107 116 232 206 201 189 178 187 168 141 154 160 183 183 206 183 167 150 151 149 145 104 136 153 153 164 164 164 168 168
265 261 253 250 252 253 252 250 250 251 253 254 254 255 254 256 259 265 270 274 281 287 290 296 301 304 304 307 312 313 312 299 268 237 222 215 207 207 216 226 232 240 267 285 295 300 310 321 311 293 267 268 266 213 202 192 186 200 152 151 240 217 232 217 181 180 178 151 143 140 175 194 229 173 167 160 134 134 149 141 138 142 149 158 165 170 172 174
262 261 256 249 248 249 250 251 251 250 252 253 254 256 254 256 258 264 271 275 283 287 292 300 304 305 304 309 314 317 326 320 269 235 224 217 216 217 220 228 231 244 268 278 294 308 321 322 309 293 259 258 217 189 192 193 184 190 175 207 244 178 237 232 191 178 172 157 148 135 146 198 225 172 174 147 116 314 229 187 171 163 162 161 168 175 178 180
260 257 255 251 246 246 248 249 252 251 251 252 253 255 255 256 258 263 270 275 282 287 297 305 307 305 304 312 314 314 338 2 240 222 216 208 211 215 219 227 232 252 264 273 299 312 320 318 302 258 232 232 157 169 209 199 184 181 226 252 269 155 156 224 187 174 161 150 145 137 137 177 178 175 192 163 145 294 232 202 192 179 173 169 171 178 182 185
258 255 253 252 247 245 246 246 249 251 252 252 252 254 256 256 257 262 266 272 279 285 302 308 307 305 306 309 309 308 297 114 126 168 175 179 197 210 216 228 238 251 259 277 304 313 321 319 291 218 211 209 169 178 214 195 185 204 258 267 268 219 225 205 175 172 163 154 149 153 162 159 148 157 216 191 203 333 233 199 194 182 177 173 174 180 185 188
256 253 250 251 248 244 244 245 246 249 252 252 252 253 255 256 254 259 261 268 273 287 307 309 309 305 308 305 306 308 267 250 94 115 126 155 186 203 213 227 237 243 255 286 302 316 326 316 279 231 199 175 195 216 184 180 187 208 282 285 262 219 242 217 172 170 170 164 156 156 159 155 149 119 218 203 236 333 165 189 186 178 176 175 179 186 189 190
257 252 247 247 248 244 242 243 244 245 249 250 251 251 253 254 252 256 258 263 270 289 306 308 310 302 307 305 311 316 276 250 106 111 97 142 179 195 211 223 229 243 260 292 308 325 332 337 350 335 217 130 333 316 145 157 194 221 253 286 251 202 228 180 165 168 168 159 153 146 124 147 153 132 194 208 251 259 166 179 177 175 176 180 186 191 194 196
263 254 246 243 246 246 240 242 243 242 245 247 249 250 250 250 250 256 256 262 272 285 304 309 308 302 303 304 317 317 250 170 125 114 93 142 178 194 210 222 228 248 266 296 316 335 346 356 5 1 333 253 354 11 153 147 218 214 200 205 214 300 89 151 156 162 159 146 158 144 72 120 142 89 183 46 203 175 167 173 174 177 181 186 192 198 199 203
268 252 245 240 242 246 241 241 242 241 242 243 246 247 248 248 248 255 256 264 272 282 300 305 303 300 299 302 319 307 182 159 165 141 105 150 177 191 206 219 229 253 269 299 321 341 353 355 358 1 347 283 341 328 185 142 290 204 170 154 173 14 66 160 164 154 148 146 172 151 52 98 115 73 188 95 155 168 165 167 176 183 187 192 199 205 208 212
273 254 244 239 239 242 240 239 241 240 240 241 243 245 247 247 247 252 257 264 271 281 293 297 302 294 293 299 292 225 170 169 192 156 119 156 179 189 198 211 228 252 270 301 325 345 351 346 351 360 357 320 329 302 249 331 314 174 143 111 25 27 58 158 166 140 131 145 185 148 67 51 68 26 274 151 159 172 170 167 178 189 195 200 205 210 215 219
276 259 245 239 239 240 238 238 240 240 240 241 241 242 244 244 245 250 256 264 269 277 284 291 297 291 298 293 268 215 172 195 198 161 138 158 184 192 192 209 229 251 277 307 330 348 347 339 343 344 332 319 326 306 315 336 344 147 131 99 2 14 15 235 131 116 111 98 169 142 53 350 341 338 89 153 166 175 176 173 180 190 199 205 210 217 221 224
280 263 247 239 237 238 237 236 239 239 240 241 240 240 240 241 243 248 255 261 264 272 278 288 293 295 305 285 245 206 200 209 189 161 150 167 187 192 191 210 231 252 277 306 325 337 337 335 335 333 333 310 252 233 346 26 99 120 95 86 56 17 333 267 117 117 96 72 157 143 25 299 271 249 143 156 174 176 178 181 183 190 199 206 212 219 224 228
283 266 251 239 236 236 235 235 236 237 239 241 240 238 237 238 242 247 255 260 263 268 272 285 293 301 298 264 215 216 229 212 180 165 164 175 185 192 193 208 234 253 277 299 313 325 331 333 331 332 344 188 211 208 19 36 75 93 50 57 77 83 275 298 98 129 113 120 160 115 63 270 279 272 176 173 184 179 181 186 188 194 201 210 219 223 228 230
284 271 255 239 235 232 232 233 234 234 236 238 238 236 235 236 240 244 254 259 261 265 271 284 292 306 298 264 213 216 220 206 189 178 206 186 181 191 196 207 231 254 280 293 304 319 327 329 330 335 344 358 68 71 29 12 16 50 79 1 6 168 262 312 101 140 137 155 136 90 110 267 301 304 177 179 190 185 185 191 194 201 207 216 227 231 237 238
286 276 256 238 232 228 228 229 230 232 232 235 236 234 232 234 239 245 253 259 259 261 266 277 288 306 302 259 208 212 219 224 244 264 252 202 183 193 202 213 228 253 274 290 308 318 322 329 344 356 354 21 67 73 49 24 355 6 81 156 276 222 278 316 342 150 141 132 35 73 153 245 333 353 171 179 190 186 185 194 200 208 216 222 230 235 241 246
287 277 257 238 228 226 227 226 229 230 228 233 235 230 229 233 239 246 253 258 256 253 252 260 284 294 266 226 204 217 230 245 257 260 252 218 200 197 201 217 236 265 277 290 305 317 328 334 342 343 23 45 63 83 57 19 330 328 50 102 241 216 206 294 290 211 129 118 171 67 93 238 316 349 175 180 189 187 185 198 206 214 223 230 234 237 244 250
285 276 257 235 226 224 224 226 228 227 227 230 228 223 224 230 240 250 255 258 250 247 254 244 245 296 242 217 209 228 236 247 243 238 242 230 213 196 194 221 278 303 328 335 313 341 346 336 356 25 25 18 30 77 67 301 239 244 220 211 249 216 192 226 259 210 131 99 148 130 279 264 313 354 177 179 187 191 191 199 211 219 226 235 241 245 251 255
283 274 257 235 226 223 221 225 226 225 224 222 218 214 218 230 246 253 252 250 230 214 259 224 195 185 213 198 210 316 274 250 240 228 230 225 211 194 192 230 298 328 4 3 336 5 0 350 18 16 339 318 316 112 166 210 198 217 206 172 187 197 213 227 249 222 150 108 112 159 204 283 326 342 306 173 179 194 201 205 218 225 231 238 245 252 259 264
281 272 256 237 224 220 219 221 223 222 216 210 204 200 213 225 235 260 262 251 233 221 243 230 212 231 267 293 316 342 312 243 235 222 206 205 206 198 199 240 307 1 32 46 302 345 16 15 337 267 254 263 270 197 185 194 193 214 175 148 189 191 238 257 271 283 146 122 31 167 141 339 320 302 306 185 162 185 206 214 221 226 238 244 248 256 265 273
279 269 256 237 222 216 215 218 220 216 207 198 191 192 220 214 169 347 307 272 250 240 248 256 253 254 260 275 301 335 334 245 207 196 182 190 197 195 214 234 63 25 322 197 262 316 27 25 274 242 229 246 277 190 170 182 192 233 174 142 204 201 225 273 280 331 59 110 8 93 101 348 316 304 334 57 141 171 209 222 226 227 235 247 252 259 269 279
275 266 252 234 219 212 212 214 210 204 195 187 189 191 203 177 140 36 357 297 270 250 247 252 259 258 251 261 284 303 311 268 193 191 182 186 192 191 197 130 103 177 303 15 343 334 11 293 259 245 236 260 347 41 148 144 118 46 47 123 190 211 185 320 338 350 15 88 24 80 105 336 312 305 5 44 69 154 230 231 236 235 235 247 255 264 277 286
270 260 245 230 216 209 207 204 197 192 186 189 192 182 154 171 151 22 358 302 283 262 246 247 253 258 257 269 283 272 249 241 210 193 186 189 192 193 176 121 104 154 5 32 153 333 330 252 249 251 346 340 348 1 63 79 91 101 114 120 214 227 144 224 318 3 28 89 151 132 103 340 327 318 5 37 46 57 48 219 217 235 232 242 250 269 309 316
264 252 237 222 211 205 198 191 187 185 189 195 192 181 181 192 196 333 330 292 305 279 239 241 250 260 262 266 277 255 231 249 238 195 193 198 181 172 185 137 99 147 235 184 152 175 248 256 270 346 34 323 303 347 60 87 311 237 177 145 175 210 157 156 165 79 37 37 111 114 64 334 335 346 341 13 39 53 53 103 117 129 140 105 95 65 12 358
256 240 224 212 205 199 188 183 184 189 194 190 183 187 200 210 229 292 320 6 313 292 229 227 245 256 248 242 242 240 274 255 233 210 202 208 189 157 168 141 110 194 223 183 138 204 259 276 296 351 38 69 86 296 186 138 164 286 213 173 161 160 136 122 129 93 54 16 276 102 72 303 308 359 343 347 20 31 33 68 81 92 107 99 85 65 44 29
242 222 207 201 194 184 179 181 186 194 191 177 176 188 212 232 248 263 280 58 322 267 173 189 217 222 212 221 217 198 349 272 225 216 213 215 203 174 145 143 115 215 204 175 136 239 263 315 41 83 61 52 40 293 223 142 110 350 234 172 138 130 131 139 145 108 95 191 240 91 116 237 308 354 344 339 9 9 14 49 62 83 96 90 84 74 67 58
223 203 192 192 183 174 177 183 187 186 173 170 183 205 234 243 235 216 130 48 317 223 150 178 186 176 192 212 186 164 69 244 199 212 216 209 201 182 187 254 348 208 188 125 22 276 267 337 14 54 58 44 19 292 218 136 104 301 222 139 125 130 146 161 150 120 157 171 29 18 99 126 293 289 301 335 42 11 2 34 47 72 88 91 92 84 76 65
198 187 184 182 173 171 177 178 176 169 161 168 193 224 240 220 193 173 103 71 223 170 134 183 173 173 189 184 187 185 139 155 162 206 208 199 198 180 188 225 184 190 199 102 237 269 275 323 352 33 16 356 278 244 193 142 91 250 189 127 125 134 139 149 119 98 113 119 99 314 43 93 263 274 320 24 84 354 319 355 33 64 87 100 98 85 76 69
181 178 176 170 166 170 172 163 162 160 160 170 208 229 202 170 166 111 88 103 207 100 130 179 169 189 193 154 195 215 224 119 134 180 187 187 196 184 186 224 181 158 317 97 196 258 260 234 223 112 298 257 239 235 176 160 243 176 133 84 61 68 72 74 79 83 58 85 189 267 36 99 267 286 337 44 111 228 253 277 17 71 93 109 102 88 86 82
172 171 167 164 168 170 162 158 160 157 159 164 222 188 156 156 123 76 119 225 219 130 126 172 180 192 171 132 218 234 211 287 104 150 161 166 184 184 101 201 154 114 352 20 216 258 280 269 239 185 212 216 224 240 174 178 203 118 102 64 55 44 39 48 40 72 64 9 251 270 354 104 294 286 252 159 199 212 201 205 92 95 100 115 111 99 99 93
165 164 164 166 170 164 155 157 159 157 161 157 183 164 151 143 66 95 178 243 188 154 74 162 206 155 146 146 203 223 171 286 125 139 147 125 152 154 72 111 71 59 9 352 321 301 320 311 247 248 242 218 177 268 209 89 76 101 88 77 84 26 14 35 357 40 77 283 266 280 310 96 108 270 270 280 282 251 184 168 151 115 102 112 118 113 111 101
159 162 162 162 159 148 146 153 151 145 150 131 151 161 147 74 41 150 226 312 333 206 183 176 215 157 146 142 168 189 143 232 176 131 139 115 119 147 142 173 174 42 353 307 319 335 321 277 291 312 271 193 134 342 325 2 38 71 60 70 86 20 13 38 337 19 106 253 257 276 294 81 211 247 267 295 300 285 227 170 143 123 111 116 122 123 122 108
156 159 154 148 143 139 142 144 139 140 137 134 151 153 98 78 204 222 246 322 240 214 187 155 134 133 140 132 197 203 126 197 213 119 105 90 87 117 274 174 154 114 78 224 307 353 324 309 333 348 323 175 137 126 296 328 21 64 87 98 93 79 66 18 270 311 275 251 245 257 255 351 298 273 269 293 314 321 142 128 124 120 118 122 123 127 133 119
156 154 148 144 139 139 140 125 126 141 136 143 148 119 73 119 226 224 219 251 242 248 187 139 93 91 128 156 228 199 127 241 190 112 70 57 73 78 307 296 147 102 104 154 256 60 62 312 322 342 309 328 92 155 168 151 109 107 152 134 123 142 140 184 201 180 206 238 279 293 292 144 233 277 300 332 24 82 111 116 117 117 120 124 122 125 131 129
156 151 149 145 140 138 132 111 118 138 139 139 126 87 117 210 247 207 219 241 232 281 335 83 92 93 116 275 294 191 145 258 119 97 66 91 155 183 181 213 216 122 111 136 240 155 107 258 269 282 273 313 41 178 156 105 93 255 127 88 41 184 139 123 167 170 166 161 344 336 275 196 214 273 329 40 60 88 109 116 117 118 125 127 122 121 121 123
153 152 149 142 136 131 125 115 121 155 171 126 99 109 199 225 226 177 215 202 152 161 102 57 77 108 186 299 318 351 69 48 90 90 25 154 185 198 191 216 203 161 145 143 211 234 53 294 287 321 329 41 52 199 139 93 163 309 59 76 250 177 120 112 151 46 85 111 2 340 281 297 316 304 344 50 56 73 101 114 118 122 130 126 118 117 119 119
153 154 151 144 136 131 137 142 155 208 220 109 106 220 219 238 214 196 225 125 105 103 118 128 150 147 174 183 260 304 50 45 39 96 201 252 221 199 199 239 204 183 186 175 202 230 104 305 295 348 25 354 0 33 54 59 115 103 102 183 190 117 96 100 108 18 42 111 273 316 270 284 316 285 274 90 124 169 133 118 115 119 126 124 120 124 126 117
158 162 157 152 143 135 144 148 163 194 168 93 133 249 216 230 222 203 228 25 21 57 109 167 197 160 161 160 232 253 121 166 268 117 162 235 276 197 173 220 204 198 201 184 182 276 100 354 294 301 242 311 349 39 38 12 53 97 143 152 112 110 106 63 103 121 97 120 296 319 303 244 215 222 216 191 187 191 179 127 113 120 127 129 133 136 131 118
163 172 166 166 166 154 150 156 163 159 106 116 221 251 222 247 262 255 268 294 20 106 142 196 178 107 148 161 191 204 124 165 188 148 145 160 258 211 184 210 206 202 194 169 159 252 102 102 280 277 249 307 4 48 63 329 5 42 77 69 38 125 147 132 129 148 141 146 249 317 349 265 228 211 193 192 195 183 166 145 134 141 140 141 148 143 133 126
161 175 175 180 182 178 175 193 181 130 107 185 207 243 276 284 278 273 274 269 222 177 197 206 169 138 163 172 180 165 111 129 154 159 184 171 235 244 217 209 170 140 157 148 145 220 91 101 237 286 318 9 13 132 162 162 354 14 49 37 14 54 115 141 111 90 126 138 174 150 328 265 248 215 184 185 188 175 161 152 154 153 146 147 151 142 137 136
159 159 114 181 186 192 190 189 188 125 142 240 229 234 284 294 272 280 281 251 225 221 213 177 160 166 164 166 196 178 115 101 139 156 185 194 204 227 299 278 171 139 118 118 132 187 147 124 163 300 358 56 255 251 176 155 177 165 128 117 141 142 134 127 89 310 118 129 166 157 201 263 262 259 197 175 163 162 162 156 153 152 149 149 149 145 147 147
158 133 322 209 187 188 182 168 284 100 159 244 254 247 269 279 264 286 298 241 219 229 229 169 151 166 162 159 173 155 114 86 205 171 173 197 172 188 329 350 142 147 123 127 212 192 152 101 105 236 285 207 256 280 184 162 179 156 109 105 135 133 111 122 189 246 134 98 139 130 179 266 274 318 132 143 143 150 158 154 145 144 150 149 148 151 154 155
145 29 324 172 170 175 168 151 300 282 228 251 263 266 269 266 262 300 315 232 201 197 179 185 184 169 175 172 142 147 132 95 253 212 168 148 177 268 330 7 118 134 95 125 205 161 120 79 84 303 307 308 305 325 7 81 106 81 20 34 82 345 103 142 178 183 141 159 154 112 252 263 301 7 87 115 126 133 142 150 146 147 153 152 155 160 161 161
91 46 94 147 160 170 165 169 219 237 271 287 291 286 281 264 245 262 289 301 247 167 123 130 231 149 158 137 106 143 160 110 68 307 81 124 36 353 10 49 116 96 58 149 169 139 138 69 88 70 354 346 340 342 347 354 26 59 359 339 331 0 77 121 145 86 87 217 155 131 230 252 306 14 87 105 111 114 120 139 148 151 153 156 164 166 165 166
121 67 102 154 170 189 217 221 199 199 281 323 312 292 294 277 242 233 239 317 24 99 110 63 38 76 85 102 82 69 91 99 119 357 38 66 332 5 25 53 82 82 75 129 140 130 123 115 114 116 135 200 226 266 275 304 337 352 358 351 345 2 54 148 125 83 253 240 148 150 223 257 325 31 86 100 106 107 114 138 153 158 159 166 173 175 178 178
155 106 106 171 197 225 249 254 245 179 254 304 295 286 295 287 275 256 225 296 35 56 70 45 28 56 53 75 83 45 27 49 77 90 55 18 323 348 17 45 58 58 65 88 102 113 101 75 111 127 144 180 192 221 246 214 58 348 335 352 355 345 341 105 101 118 188 180 186 224 198 144 96 88 109 119 119 115 133 152 162 167 169 175 180 181 184 181
156 172 159 177 220 245 257 260 249 207 197 198 260 288 291 279 305 30 52 54 32 41 60 38 26 52 44 66 96 55 6 27 45 56 50 356 276 307 9 44 48 41 51 61 52 80 93 53 69 111 100 188 187 184 16 80 93 36 359 5 4 4 27 65 62 288 207 132 274 273 189 137 160 165 146 144 130 139 166 174 176 178 177 179 185 192 196 193
224 242 203 183 204 217 233 250 234 214 217 216 260 304 313 326 0 41 34 36 25 24 53 38 21 39 60 76 109 84 9 32 33 12 349 2 344 337 8 31 35 35 50 49 33 79 109 66 276 102 50 10 99 82 66 92 101 58 40 24 9 23 45 57 25 322 348 157 244 272 95 104 113 131 144 156 165 171 173 172 174 178 182 193 202 205 204 204
237 269 232 210 229 240 243 256 216 200 212 205 218 291 275 7 39 44 10 36 30 13 48 76 14 19 45 60 96 96 47 83 53 344 303 29 9 16 26 15 18 30 43 47 27 60 105 84 87 101 61 22 22 30 60 103 98 60 40 28 19 35 56 63 37 10 45 81 102 88 81 63 19 33 83 100 144 136 106 100 101 101 197 222 239 243 238 238
275 253 247 237 260 274 279 281 174 157 181 181 185 274 226 86 59 60 21 47 94 4 38 96 89 40 53 56 74 94 152 153 141 182 180 104 14 17 93 225 271 12 24 52 25 23 84 121 63 87 73 10 359 39 76 92 92 70 34 18 13 21 40 48 30 13 35 57 61 76 78 54 10 60 78 86 102 93 79 96 156 190 204 242 283 289 279 265
300 248 263 277 284 300 310 311 148 133 91 147 177 263 90 100 94 101 54 35 74 98 93 128 132 83 53 57 71 106 204 179 165 193 186 164 206 214 195 205 185 21 8 34 4 2 77 118 79 74 85 287 272 92 61 47 69 62 28 4 358 8 35 47 34 25 25 45 42 58 77 72 336 80 77 73 77 72 64 65 59 349 297 302 312 308 296 283
337 237 244 239 276 334 341 339 71 104 103 188 187 133 102 145 103 91 76 29 37 80 121 140 127 82 50 52 57 304 247 236 260 281 264 257 262 245 237 220 166 147 74 99 55 9 89 125 145 106 114 212 250 356 0 10 42 31 346 335 325 333 79 71 33 17 10 23 89 70 110 148 101 79 74 60 61 61 57 56 50 38 33 12 356 356 342 319